Regional Weather Roundup
Issued by NWS Mobile, AL

Home | Current Version | Previous Version | Text Only | Print | Product List | Glossary On
Versions: 1 2 3 4 5 6 7 8 9 10 11 12 13 14 15 16 17 18 19 20 21 22 23 24 25 26 27 28 29 30 31 32 33 34 35 36 37 38 39 40 41 42 43 44 45 46
000
ASUS44 KMOB 101812
RWRMOB
REGIONAL WEATHER ROUNDUP
NATIONAL WEATHER SERVICE MOBILE AL
1200 PM CST WED FEB 10 2016

NOTE: "FAIR" INDICATES FEW OR NO CLOUDS BELOW 12,000 FEET WITH NO
      SIGNIFICANT WEATHER AND/OR OBSTRUCTIONS TO VISIBILITY.

  * THESE STATIONS ARE PART OF THE UNIVERSITY OF SOUTH ALABAMA
    MESONET AND ARE NOT UNDER NWS OR FAA QUALITY CONTROL.

ALZ061>064-101900-
COASTAL ALABAMA

CITY           SKY/WX    TMP DP  RH WIND       PRES   REMARKS
MOBILE REG APT SUNNY     47  15  27 N8        30.31F
6HR MIN TEMP:  26; 6HR MAX TEMP:  48;

BROOKLEY FIELD SUNNY     50  15  24 N12G17    30.33F
6HR MIN TEMP:  29; 6HR MAX TEMP:  50;

USA CAMPUS*    NOT AVBL
DOG RIVER*     NOT AVBL


CITY           SKY/WX    TMP DP  RH WIND       PRES   REMARKS
MOUNT VERNON*  NOT AVBL
SARALAND*      NOT AVBL
BAY MINETTE*   NOT AVBL
LOXLEY*        NOT AVBL
ROBERTSDALE*   NOT AVBL
FAIRHOPE*      NOT AVBL
ELBERTA*       NOT AVBL
FOLEY*         NOT AVBL
GRAND BAY*     NOT AVBL
DAUPHIN ISLND* NOT AVBL
BON SCOUR NWR* NOT AVBL
GULF SHORES    SUNNY     47  14  26 NW7       30.31F

$$

ALZ051>060-101900-
INTERIOR SOUTHWEST AND SOUTH CENTRAL ALABAMA

CITY           SKY/WX    TMP DP  RH WIND       PRES   REMARKS
GREENVILLE     SUNNY     41   7  24 W10       30.24F
6HR MIN TEMP:  26; 6HR MAX TEMP:  41;

EVERGREEN      SUNNY     46  11  24 W9        30.28F
6HR MIN TEMP:  24; 6HR MAX TEMP:  46; 6HR PCP: TRACE;

CASTLEBERRY*   NOT AVBL
ATMORE*        NOT AVBL
DIXIE*         NOT AVBL
ANDALUSIA/OPP  SUNNY     48  10  21 NW14G23   30.26
6HR MIN TEMP:  30; 6HR MAX TEMP:  48;

ANDALUSIA*     NOT AVBL
FLORALA APT    SUNNY     44  10  25 NW7       30.27F
6HR MIN TEMP:  26; 6HR MAX TEMP:  44;

FLORALA*       NOT AVBL

$$

FLZ001>006-101900-
WESTERN FLORIDA PANHANDLE

CITY           SKY/WX    TMP DP  RH WIND       PRES   REMARKS
PENSACOLA      SUNNY     49  14  24 MISG      30.29F
6HR MIN TEMP:  29; 6HR MAX TEMP:  49;

NAS PENSACOLA  SUNNY     49  12  22 NW7G18    30.29F
6HR MIN TEMP:  30; 6HR MAX TEMP:  49;

MILTON         SUNNY     46  14  27 NW13      30.28F
6HR MIN TEMP:  24; 6HR MAX TEMP:  46;

WHTNG S FIELD  SUNNY     49  15  25 N13       30.29F
6HR MIN TEMP:  27; 6HR MAX TEMP:  50;



CITY           SKY/WX    TMP DP  RH WIND       PRES   REMARKS
WALNUT HILL*   NOT AVBL
JAY*           NOT AVBL
DUKE FIELD     MOSUNNY   46  11  24 NW9       30.26
CRESTVIEW      SUNNY     46  10  23 NW12      30.29F
6HR MIN TEMP:  23; 6HR MAX TEMP:  46;

VALPARAISO     MOSUNNY   47   9  21 NW15G22   30.26F
6HR MIN TEMP:  29; 6HR MAX TEMP:  47;

DESTIN         SUNNY     48  14  25 VRB7G17   30.28F
6HR MIN TEMP:  35; 6HR MAX TEMP:  49;


$$

MSZ076-079-101900-
INTERIOR SOUTHEAST MISSISSIPPI

CITY           SKY/WX    TMP DP  RH WIND       PRES   REMARKS
LEAKESVILLE*   NOT AVBL
AGRICOLA*      NOT AVBL

$$

MARINE OBSERVATIONS

STATION/POSITION TIME  TEMP    WIND        PRES    WAVE
                       AIR SEA DIR/SP/G            HT/PER
                 (UTC) (F)     (DEG/KT/KT) (MB)    (FT/S)
PASCAGOULA       1700   46     340/  7/ 11 1027.1F
PETIT BOIS ISLND 1700   44     310/  6/  8 1028.1F
KATRINA CUT      1700   42     330/  4       N/A
CEDAR POINT      1700   43     300/  8     1026.8F
E DAUPHIN ISLAND 1800   45     290/  8/ 10 1026.6F
MIDDLE BAY LIGHT 1700          340/ 10     1027.1S
USCG MOBILE BAY  1700   44 52  310/  5/ 10 1027.6F
STATE DOCKS      1700   49 52              1027.0F
MEAHER PARK      1700   42     310/  8     1027.4F
WEEKS BAY        1645   44                   N/A
FORT MORGAN      1700   43     330/  4/  5 1026.8F
12 S ORANGE BCH  1750   45 65  310/ 10/ 17 1026.1F   1/ 8
PENSACOLA BAY    1700   46 49  320/  7/ 11 1026.8F

$$

SELECTED LOCATIONS ACROSS THE REGION

CITY           SKY/WX    TMP DP  RH WIND       PRES   REMARKS
NEW ORLEANS    SUNNY     52  19  27 NW9       30.37F
GULFPORT       SUNNY     53  16  23 NW9       30.33F
PASCAGOULA AP  SUNNY     51  15  23 CALM      30.33F
PASCAGOULA*    NOT AVBL
HATTIESBURG    SUNNY     49  15  25 NW13      30.33F
LAUREL         SUNNY     48  14  25 W9        30.33F
MERIDIAN       SUNNY     44  13  28 NW12      30.29F
JACKSON        SUNNY     46  17  31 SW7       30.30F
MONTGOMERY     SUNNY     42  11  28 W16G23    30.26F
TROY           SUNNY     43  10  26 NW10G23   30.25F
KINSTON*       NOT AVBL
GENEVA*        NOT AVBL
ASHFORD*       NOT AVBL
DOTHAN         SUNNY     43  10  26 NW17G26   30.26F
PANAMA CITY    SUNNY     46  15  28 NW9G20    30.26F

$$




USA.gov is the U.S. government's official web portal to all federal, state and local government web resources and services.